Flag for Germany Weather past 2 weeks in Bornheim (Rheinland), North Rhine-Westphalia, Germany

Now
71 °F

Passing clouds.


Feels Like: 76 °F
Forecast: 56 / 74 °F
Wind: 3 mph from East

Location: Bonn-Hangelar

Current Time: Sep 16, 2014 at 7:47:16 PM

Latest Report: Sep 16, 2014 at 7:00 PM


Visibility: 25 mi

Pressure: 29.92 "Hg

Humidity: 61%

Dew point: 57 °F

Location of Bornheim (Rheinland)Location

Historic Weather in Bornheim (Rheinland) — Graph

°F

Bornheim (Rheinland) temperature yesterday

Maximum temperature yesterday: 70 °F (at 4:00 PM)
Minimum temperature yesterday: 53 °F (at 6:00 AM)
Average temperature yesterday: 60 °F

Past Weeks' High & Low Weather Summary

 TemperatureHumidityPressure
High74 °F (Sep 5, 4:00 PM)99% (Sep 3, 5:00 AM)30.27 "Hg (Sep 3, 5:00 AM)
Low47 °F (Sep 12, 7:00 AM)52% (Sep 10, 3:00 PM)29.90 "Hg (Sep 6, 6:00 PM)
Average60 °F81%30.09 "Hg
* Reported Sep 1 6:00 PM — Sep 16 6:00 PM, Bornheim (Rheinland), Weather by CustomWeather, © 2014

Note: Actual official high and low records may vary slightly from our data, if they occured in-between our weather recording intervals... More about our weather records

Advertising

Bornheim (Rheinland) weather history for previous 24 hours

 ConditionsComfort  
Time TempWeatherWind HumidityBarometerVisibility
6:00 PM
Sep 16
72 °FPassing clouds.3 mph58%29.93 "Hg25 mi
5:00 PM72 °FPassing clouds.3 mph57%29.92 "Hg19 mi
4:00 PM72 °FScattered clouds.3 mph58%29.93 "Hg19 mi
3:00 PM71 °FScattered clouds.3 mph57%29.94 "Hg19 mi
2:00 PM70 °FScattered clouds.3 mph62%29.95 "Hg19 mi
1:00 PM70 °FPartly sunny.2 mph66%29.96 "Hg19 mi
12:00 PM67 °FPartly sunny.3 mph73%29.98 "Hg12 mi
11:00 AM65 °FOvercast.3 mph84%29.99 "Hg16 mi
10:00 AM61 °FOvercast.2 mph88%29.99 "Hg19 mi
9:00 AM59 °FOvercast.2 mph91%29.99 "Hg11 mi
8:00 AM59 °FOvercast.1 mph90%29.99 "Hg12 mi
7:00 AM58 °FOvercast.1 mph94%29.99 "Hg9 mi
6:00 AM57 °FPassing clouds.2 mph91%29.99 "Hg12 mi
5:00 AM58 °FOvercast.3 mph90%29.98 "Hg6 mi
4:00 AM60 °FOvercast.2 mph87%29.99 "Hg7 mi
3:00 AM60 °FOvercast.2 mph89%30.00 "Hg7 mi
2:00 AM57 °FOvercast.2 mph94%30.01 "Hg5 mi
1:00 AM58 °FOvercast.2 mph92%30.00 "Hg6 mi
12:00 AM57 °FOvercast.2 mph92%30.01 "Hg5 mi
11:00 PM
Sep 15
60 °FPassing clouds.2 mph89%30.00 "Hg7 mi
10:00 PM60 °FOvercast.2 mph87%30.00 "Hg9 mi
9:00 PM63 °FPassing clouds.3 mph80%29.99 "Hg12 mi
8:00 PM65 °FPassing clouds.3 mph75%29.98 "Hg22 mi
7:00 PM68 °FPartly sunny.5 mph67%29.97 "Hg25 mi
Weather by CustomWeather, © 2014

See weather overviewHow to use our weather pages